{"data":{"norad_id":63885,"epoch":"2026-09-20T17:23:59.817696Z","epoch_age_seconds":127533,"freshness":"FRESH","line1":"1 63885U 25094X   26263.72499789  .00009487  00000+0  33395-3 0  9997","line2":"2 63885  69.9991 100.4683 0003460 267.8933  92.1846 15.29587226 76479","mean_motion":15.29587226,"eccentricity":0.000346,"inclination_deg":69.9991,"raan_deg":100.4683,"arg_perigee_deg":267.8933,"mean_anomaly_deg":92.1846,"bstar":0.00033395,"rev_number":7647,"period_min":94.143045621904,"perigee_km":474.6734198363,"apogee_km":479.41720599683,"semimajor_km":6855.1823129166,"source":"CELESTRAK","updated_at":"2026-09-21T09:00:35.141412Z"}}